Content
SEND FEEDBACK

Daily
Averages
Monthly
Summary
Canada

MONTREAL TRUDEAU AIRPORT, QUEBEC


Home > North America > Canada > Quebec
Elevation: 118 feet     Latitude: 45 28N     Longitude: 73 45W

WEATHER
 
SELECT A DAY
Number of Records: 198,066;   Date Range: 1/1/95 - 7/23/14
 
SHARE

PRINT THIS DATA

[ ← Previous Day ]
WEATHER ALMANAC - FEBRUARY 11, 2013
[ Next Day → ]
[ °C ]   °F
Weather ElementAverageHighLow
Temperature23.8 °F37.4 °F (9:00 pm)12.2 °F (4:00 am)
Dewpoint10.2 °F33.8 °F (9:00 pm) (7:00 pm)
Humidity75.7 %93 % (1:00 pm)30 % (1:00 am)
Wind Speed11.8 mph27.6 mph (10:15 pm)
Wind Gust35.7 mph (10:00 pm)
Weather ElementAverage
Visibility10 mi
Wind DirectionSSE (165.6 °)

Weather ElementTotal
Precipitation---
Heating Degree Days40.2 (Base 65)
Averaged from 40 records on February 11, 2013
WEATHER CONDITIONS BREAKOUT
WIND DIRECTION BREAKOUT
WEATHER BY HOUR - FEBRUARY 11, 2013
[ °C ]   °F
Local TimeTemperatureDewpointHumidityBarometerVisibilityWind DirectionWind SpeedGust SpeedPrecipitationEventsConditions
1:00 AM20.0 °F2.0 °F30 %30.17 in15.0 miENE (70°)12.7 mphScattered Clouds
1:00 AM19.4 °F1.4 °F46 %30.17 in15.0 miENE (70°)11.5 mph18.4 mphMostly Cloudy
2:00 AM21.2 °F1.4 °F42 %30.15 in15.0 miNNE (30°)8.1 mphOvercast
3:00 AM14.0 °F5.0 °F67 %30.11 in15.0 miNNE (30°)13.8 mphOvercast
4:00 AM12.2 °F5.0 °F73 %30.07 in15.0 miNNE (30°)13.8 mphOvercast
5:00 AM12.2 °F5.0 °F73 %30.02 in15.0 miNNE (30°)12.7 mphOvercast
6:00 AM14.0 °F6.8 °F73 %29.99 in15.0 miNNE (30°)13.8 mphOvercast
7:00 AM14.0 °F8.0 °F65 %29.95 in12.0 miNNE (30°)13.8 mphOvercast
7:00 AM14.0 °F6.8 °F73 %29.95 in12.0 miNNE (30°)13.8 mphOvercast
8:00 AM15.8 °F8.6 °F73 %29.91 in12.0 miNNE (30°)12.7 mphOvercast
9:00 AM17.6 °F10.4 °F73 %29.86 in12.0 miNNE (20°)8.1 mphSnowLight Snow Showers
10:00 AM19.4 °F10.4 °F68 %29.82 in10.0 miNNW (340°)9.2 mphSnowLight Snow
10:51 AM19.4 °F0.0 °F4.0 miNNE (20°)9.2 mphSnowLight Snow
11:00 AM19.4 °F12.2 °F74 %29.81 in0.8 miNorth (360°)8.1 mphSnowLight Snow
11:05 AM19.4 °F0.0 °F0.0 mi6.9 (2013°)0.00 inLight Snow350
11:27 AM17.6 °F0.0 °F1.0 miNNE (30°)8.1 mphSnowLight Snow
11:35 AM19.4 °F0.0 °F3.0 miNNE (20°)8.1 mphSnowLight Snow
11:42 AM19.4 °F0.0 °F8.0 miNNE (30°)6.9 mphSnowLight Snow
12:00 PM21.2 °F17.6 °F86 %29.76 in10.0 miNNE (20°)8.1 mphSnowLight Snow
1:00 PM23.0 °F21.2 °F93 %29.70 in12.0 miNNE (30°)5.8 mphSnowLight Snow
1:00 PM24.0 °F21.0 °F81 %29.70 in10.0 miNNE (20°)5.8 mphSnowLight Snow
2:00 PM24.8 °F21.2 °F86 %29.67 in10.0 miNNE (20°)9.2 mphSnowLight Snow
2:39 PM24.8 °F0.0 °F12.0 miNNE (20°)9.2 mphOvercast
3:00 PM24.8 °F21.2 °F86 %29.64 in12.0 miNNE (20°)12.7 mphOvercast
4:00 PM24.8 °F21.2 °F86 %29.62 in10.0 miNNE (20°)11.5 mphLight Freezing Drizzle
6:00 PM26.6 °F24.8 °F93 %29.59 in8.0 miNNE (20°)9.2 mphLight Freezing Drizzle
6:30 PM26.6 °F0.0 °F10.0 miNorth (350°)5.8 mphSnowLight Snow
6:47 PM26.6 °F0.0 °F10.0 miNNW (330°)4.6 mphSnowLight Ice Pellets
6:55 PM26.6 °F0.0 °F10.0 miNorth (360°)4.6 mphRain-SnowLight Snow
7:00 PM26.6 °F24.8 °F93 %29.60 in8.0 miNW (320°)6.9 mphRain-SnowLight Snow
7:00 PM27.0 °F24.0 °F86 %29.60 in7.0 miNorth4.6 mphSnowLight Snow
8:00 PM30.2 °F28.4 °F93 %29.56 in6.0 miSSE (160°)5.8 mphRain-SnowLight Snow
8:24 PM30.2 °F0.0 °F8.0 miSouth (170°)8.1 mphOvercast
9:00 PM37.4 °F33.8 °F87 %29.54 in10.0 miSSW (210°)17.3 mphOvercast
9:40 PM37.4 °F0.0 °F10.0 miSSW (210°)24.2 mphRainLight Rain
10:00 PM37.4 °F32.0 °F81 %29.55 in10.0 miSW (220°)24.2 mph35.7 mphRainLight Rain
10:15 PM35.6 °F0.0 °F10.0 miSW (220°)27.6 mph35.7 mphRainLight Rain
10:30 PM35.6 °F0.0 °F12.0 miSW (230°)26.5 mph34.5 mphRainLight Rain
11:00 PM35.6 °F32.0 °F87 %29.56 in12.0 miSW (230°)23.0 mphRainLight Rain
11:21 PM35.6 °F0.0 °F15.0 miSW (230°)20.7 mph29.9 mphOvercast
Hourly data recorded from CYUL, located miles away from Montreal Trudeau Airport, Quebec







STORIES FROM OUR PARTNERS